Regional Weather Roundup
Issued by NWS Newport/Morehead, NC

Current Version | Previous Version | Graphics & Text | Print | Product List | Glossary Off
Versions: 1 2 3 4 5 6 7 8 9 10 11 12 13 14 15 16 17 18 19 20 21 22 23 24 25 26 27 28 29 30 31 32 33 34 35 36 37 38 39 40 41 42 43 44 45 46 47 48 49 50

000
ASUS42 KMHX 221722
RWRMHX
WEATHER ROUNDUP FOR EASTERN NORTH CAROLINA
NATIONAL WEATHER SERVICE NEWPORT/MOREHEAD CITY NC
100 PM EDT TUE JUL 22 2014

NOTE: "FAIR" INDICATES FEW OR NO CLOUDS BELOW 12,000 FEET
WITH NO SIGNIFICANT WEATHER AND/OR OBSTRUCTIONS TO VISIBILITY

NCZ015>017-031-032-045>047-102-103-221800-
NORTH COAST

CITY           SKY/WX    TMP DP  RH WIND       PRES   REMARKS
EDENTON        PTSUNNY   83  74  74 E12G18    30.13F
ELIZABETH CITY PTSUNNY   82  73  74 E12       30.15F
KITTY HAWK     PTSUNNY   81  74  78 E9        30.13F
MANTEO         NOT AVBL

$$

NCZ045>047-081-094-103-104-221800-
CENTRAL COAST

CITY           SKY/WX    TMP DP  RH WIND       PRES   REMARKS
FRISCO         CLOUDY    82  75  79 S12       30.15F
SWANQUARTER      N/A     82 N/A N/A S14       30.09F

$$

NCZ095-097-098-100-101-221800-
SOUTHERN COAST

CITY           SKY/WX    TMP DP  RH WIND       PRES   REMARKS
BEAUFORT       CLOUDY    77  75  93 S13       30.14F
CEDAR ISLAND     N/A     77 N/A N/A S6        30.18S
JACKSONVILLE   HVY RAIN  76  73  91 SE9       30.13S FOG
NEWPORT        NOT AVBL
PINEY ISLAND   HVY RAIN  78  78 100 S8        30.14F FOG
WILMINGTON     RAIN      79  75  87 NE5       30.12S FOG


$$

NCZ011>013-027>030-043-044-078>080-089-090>093-098-221800-
COASTAL PLAIN

CITY           SKY/WX    TMP DP  RH WIND       PRES   REMARKS
AHOSKIE        MOSUNNY   81  71  73 NE5       30.15S
CLINTON        MOSUNNY   85  74  69 E3        30.12F
ELIZABETHTOWN  MOSUNNY   82  73  72 CALM      30.12F
GOLDSBORO      PTSUNNY   84  77  79 NE6       30.11F
GREENVILLE     LGT RAIN  81  75  83 NE5       30.14F
HAVELOCK       RAIN      77  74  90 S5        30.14F FOG
KENANSVILLE    MOSUNNY   84  71  65 E3        30.13F
KINSTON        MOSUNNY   84  73  70 N5        30.13F
NEW BERN       CLOUDY    86  74  67 SE9       30.13F
RICHLANDS      CLOUDY    82  73  74 S5        30.12F
ROANOKE RAPIDS NOT AVBL
ROCKY MOUNT    CLOUDY    84  72  67 NE5       30.14S
WASHINGTON     PTSUNNY   82  74  76 CALM      30.11F
WHITEVILLE     PTSUNNY   83  73  70 N5        30.11F

$$

AMZ130-135-150-152-154-156-158-170-250-252-270-ANZ085-086-088-633-658-670-221800-
MARINE OBSERVATIONS

STATION/POSITION TIME  TEMP    WIND        PRES    WAVE   SWELL
                       AIR SEA DIR/SP/G            HT/PER HT/PER
                 (UTC) (F)     (DEG/KT/KT) (MB)    (FT/S) (FT/S)
CHESAPEAKE LIGHT NOT AVBL
BUOY 44014       1700   77 78   70/ 10/ 12 1021.0    3/ 7   2/ 7
DUCK             1700   77 77   60/ 10/ 11 1020.1
2E DUCK          1700                        N/A     2/ 7
OREGON INLET     1700   79 77  180/  9/ 10 1020.7
BUOY 44095       1700      78                N/A     2/ 6
20E OREGON INLET NOT AVBL
HATTERAS CG      1700   80 81  160/ 10/ 13 1021.3
DIAMOND BUOY     1700          VRB 14/ 16  1020.9    4/ 7   2/ 7
CAPE LOOKOUT     1700   76     170/ 14/ 16 1020.5
BEAUFORT LAB     1700   76 80  180/ 12/ 15 1020.0
30 SE NEW RIVER  1700   77 80  150/ 12/ 14 1020.5    3/ 5   2/ 6
5 SE WRIGHTSVILL 1700   76 81  140/  4/  6   N/A
BUOY 41002       1640   82 83  200/ 12/ 14 1022.4    4/ 7   3/ 7
BUOY 41004       1700   78 82   30/  4/  6 1019.4    3/ 6   3/ 6

$$



USA.gov is the U.S. government's official web portal to all federal, state and local government web resources and services.